When you browse on this site, cookies collect data to enhance your experience and personalize the content and advertising you see.
Visit our Privacy Policy to learn more. By continuing to use the site, you agree to this use of cookies and data.
  • In Romania
  • List of Countries
  • For 7 days
  • Water Temperature
  • Satellite Maps
  • Weather Map
  • Weather Widgets
  • user-avatar
    Login

    Hourly Weather Ashanivka

    Today, 16 July, Tuesday

    Time Temperature Precipitation Wind Pressure Humidity
    00:00 +16°C° 0 mm 2 mps 746 mmHg 90%
    01:00 +16°C° 0 mm 2 mps 746 mmHg 91%
    02:00 +15°C° 0 mm 2 mps 746 mmHg 92%
    03:00 +15°C° 0 mm 2 mps 746 mmHg 92%
    04:00 +14°C° 0 mm 3 mps 746 mmHg 92%
    05:00 +13°C° 0 mm 3 mps 746 mmHg 91%
    06:00 +16°C° 0 mm 3 mps 746 mmHg 85%
    07:00 +18°C° 0 mm 3 mps 746 mmHg 79%
    08:00 +19°C° 0 mm 3 mps 746 mmHg 73%
    09:00 +21°C° 0 mm 3 mps 746 mmHg 68%
    10:00 +22°C° 0 mm 3 mps 746 mmHg 64%
    11:00 +24°C° 0 mm 3 mps 745 mmHg 59%
    12:00 +24°C° 0.1 mm 3 mps 745 mmHg 58%
    13:00 +25°C° 0.1 mm 3 mps 745 mmHg 57%
    14:00 +25°C° 0.1 mm 3 mps 745 mmHg 56%
    15:00 +25°C° 0.2 mm 3 mps 745 mmHg 57%
    16:00 +25°C° 0.2 mm 4 mps 745 mmHg 58%
    17:00 +23°C° 0.2 mm 4 mps 745 mmHg 59%
    18:00 +22°C° 0.1 mm 3 mps 745 mmHg 65%
    19:00 +20°C° 0.1 mm 2 mps 745 mmHg 70%
    20:00 +20°C° 0.1 mm 1 mps 745 mmHg 76%
    21:00 +18°C° 0 mm 2 mps 745 mmHg 78%
    22:00 +17°C° 0 mm 2 mps 745 mmHg 79%
    23:00 +16°C° 0 mm 2 mps 745 mmHg 81%

    Tomorrow, 17 July, Wednesday

    Time Temperature Precipitation Wind Pressure Humidity
    00:00 +16°C° 0 mm 2 mps 745 mmHg 82%
    01:00 +15°C° 0 mm 2 mps 745 mmHg 84%
    02:00 +14°C° 0 mm 3 mps 745 mmHg 86%
    03:00 +15°C° 0 mm 2 mps 745 mmHg 87%
    04:00 +15°C° 0 mm 2 mps 745 mmHg 88%
    05:00 +15°C° 0 mm 2 mps 745 mmHg 89%
    06:00 +16°C° 0 mm 3 mps 745 mmHg 83%
    07:00 +18°C° 0 mm 4 mps 745 mmHg 78%
    08:00 +19°C° 0 mm 4 mps 745 mmHg 73%
    09:00 +20°C° 0 mm 5 mps 745 mmHg 69%
    10:00 +21°C° 0 mm 5 mps 745 mmHg 64%
    11:00 +21°C° 0 mm 6 mps 745 mmHg 60%
    12:00 +22°C° 0 mm 5 mps 745 mmHg 58%
    13:00 +22°C° 0 mm 5 mps 745 mmHg 56%
    14:00 +23°C° 0 mm 5 mps 745 mmHg 54%
    15:00 +23°C° 0 mm 5 mps 745 mmHg 55%
    16:00 +23°C° 0 mm 4 mps 745 mmHg 55%
    17:00 +23°C° 0 mm 4 mps 745 mmHg 56%
    18:00 +20°C° 0.2 mm 4 mps 744 mmHg 65%
    19:00 +19°C° 0.2 mm 4 mps 744 mmHg 73%
    20:00 +17°C° 0.2 mm 3 mps 744 mmHg 81%
    21:00 +16°C° 0 mm 3 mps 744 mmHg 83%
    22:00 +14°C° 0 mm 3 mps 744 mmHg 85%
    23:00 +13°C° 0 mm 3 mps 744 mmHg 87%

    Day after tomorrow, 18 July, Thursday

    Time Temperature Precipitation Wind Pressure Humidity
    00:00 +13°C° 0 mm 3 mps 744 mmHg 88%
    01:00 +13°C° 0 mm 3 mps 744 mmHg 89%
    02:00 +12°C° 0 mm 4 mps 744 mmHg 90%
    03:00 +12°C° 0 mm 4 mps 745 mmHg 92%
    04:00 +12°C° 0 mm 4 mps 745 mmHg 93%
    05:00 +12°C° 0 mm 4 mps 745 mmHg 94%
    06:00 +13°C° 0 mm 4 mps 745 mmHg 88%
    07:00 +15°C° 0 mm 4 mps 745 mmHg 81%
    08:00 +18°C° 0 mm 4 mps 745 mmHg 75%
    09:00 +19°C° 0 mm 4 mps 745 mmHg 70%
    10:00 +20°C° 0 mm 4 mps 746 mmHg 65%
    11:00 +21°C° 0 mm 4 mps 746 mmHg 59%
    12:00 +22°C° 0.2 mm 5 mps 746 mmHg 59%
    13:00 +22°C° 0.2 mm 5 mps 746 mmHg 59%
    14:00 +23°C° 0.2 mm 6 mps 746 mmHg 58%
    15:00 +22°C° 0 mm 6 mps 746 mmHg 59%
    16:00 +22°C° 0 mm 6 mps 746 mmHg 60%
    17:00 +22°C° 0 mm 6 mps 746 mmHg 60%
    18:00 +20°C° 0 mm 5 mps 746 mmHg 67%
    19:00 +19°C° 0 mm 4 mps 747 mmHg 74%
    20:00 +17°C° 0 mm 4 mps 747 mmHg 81%
    21:00 +17°C° 0 mm 4 mps 747 mmHg 84%
    22:00 +15°C° 0 mm 4 mps 747 mmHg 87%
    23:00 +15°C° 0 mm 4 mps 748 mmHg 90%

    19 July, Friday

    Time Temperature Precipitation Wind Pressure Humidity
    00:00 +14°C° 0 mm 4 mps 748 mmHg 91%
    01:00 +14°C° 0 mm 4 mps 748 mmHg 92%
    02:00 +14°C° 0 mm 3 mps 748 mmHg 93%
    03:00 +14°C° 0 mm 3 mps 748 mmHg 94%
    04:00 +13°C° 0 mm 3 mps 749 mmHg 94%
    05:00 +13°C° 0 mm 3 mps 749 mmHg 94%
    06:00 +15°C° 0 mm 4 mps 749 mmHg 86%
    07:00 +18°C° 0 mm 4 mps 749 mmHg 78%
    08:00 +20°C° 0 mm 4 mps 749 mmHg 71%
    09:00 +21°C° 0 mm 4 mps 750 mmHg 65%
    10:00 +23°C° 0 mm 4 mps 750 mmHg 60%
    11:00 +25°C° 0 mm 4 mps 750 mmHg 54%
    12:00 +25°C° 0 mm 4 mps 750 mmHg 52%
    13:00 +26°C° 0 mm 4 mps 750 mmHg 50%
    14:00 +26°C° 0 mm 5 mps 750 mmHg 48%
    15:00 +26°C° 0 mm 4 mps 750 mmHg 49%
    16:00 +26°C° 0 mm 4 mps 750 mmHg 50%
    17:00 +26°C° 0 mm 3 mps 750 mmHg 51%
    18:00 +24°C° 0 mm 3 mps 750 mmHg 57%
    19:00 +23°C° 0 mm 2 mps 751 mmHg 62%
    20:00 +20°C° 0 mm 2 mps 751 mmHg 68%
    21:00 +19°C° 0 mm 2 mps 751 mmHg 69%
    22:00 +20°C° 0 mm 1 mps 751 mmHg 71%
    23:00 +19°C° 0 mm 1 mps 752 mmHg 73%

    20 July, Saturday

    Time Temperature Precipitation Wind Pressure Humidity
    00:00 +19°C° 0 mm 1 mps 752 mmHg 73%
    01:00 +18°C° 0 mm 1 mps 752 mmHg 74%
    02:00 +18°C° 0 mm 1 mps 752 mmHg 75%
    03:00 +18°C° 0 mm 1 mps 752 mmHg 76%
    04:00 +18°C° 0 mm 1 mps 752 mmHg 77%
    05:00 +18°C° 0 mm 1 mps 752 mmHg 78%
    06:00 +20°C° 0 mm 1 mps 752 mmHg 73%
    07:00 +22°C° 0 mm 1 mps 753 mmHg 68%
    08:00 +23°C° 0 mm 1 mps 753 mmHg 63%
    09:00 +25°C° 0.1 mm 2 mps 753 mmHg 60%
    10:00 +26°C° 0.1 mm 3 mps 753 mmHg 58%
    11:00 +27°C° 0.1 mm 3 mps 753 mmHg 55%
    12:00 +27°C° 0.4 mm 4 mps 753 mmHg 56%
    13:00 +27°C° 0.4 mm 4 mps 753 mmHg 58%
    14:00 +27°C° 0.4 mm 4 mps 753 mmHg 59%
    15:00 +27°C° 0.5 mm 3 mps 753 mmHg 61%
    16:00 +26°C° 0.5 mm 2 mps 753 mmHg 63%
    17:00 +26°C° 0.5 mm 2 mps 753 mmHg 65%
    18:00 +25°C° 0.1 mm 1 mps 753 mmHg 70%
    19:00 +23°C° 0.1 mm 1 mps 753 mmHg 75%
    20:00 +20°C° 0.1 mm 0 mps 753 mmHg 80%
    21:00 +21°C° 0 mm 1 mps 754 mmHg 82%
    22:00 +21°C° 0 mm 1 mps 754 mmHg 83%
    23:00 +20°C° 0 mm 1 mps 754 mmHg 85%

    21 July, Sunday

    Time Temperature Precipitation Wind Pressure Humidity
    00:00 +20°C° 0 mm 1 mps 754 mmHg 86%
    01:00 +19°C° 0 mm 1 mps 754 mmHg 87%
    02:00 +19°C° 0 mm 1 mps 754 mmHg 87%
    03:00 +17°C° 0 mm 0 mps 754 mmHg 87%
    04:00 +17°C° 0 mm 0 mps 754 mmHg 87%
    05:00 +17°C° 0 mm 0 mps 754 mmHg 86%
    06:00 +19°C° 0 mm 0 mps 754 mmHg 80%
    07:00 +21°C° 0 mm 0 mps 754 mmHg 74%
    08:00 +23°C° 0 mm 0 mps 754 mmHg 68%
    09:00 +26°C° 0 mm 1 mps 754 mmHg 62%
    10:00 +27°C° 0 mm 1 mps 754 mmHg 56%
    11:00 +29°C° 0 mm 2 mps 755 mmHg 50%
    12:00 +29°C° 0 mm 2 mps 754 mmHg 47%
    13:00 +29°C° 0 mm 2 mps 754 mmHg 44%
    14:00 +30°C° 0 mm 2 mps 754 mmHg 42%
    15:00 +30°C° 0 mm 2 mps 754 mmHg 44%
    16:00 +29°C° 0 mm 2 mps 754 mmHg 46%
    17:00 +29°C° 0 mm 2 mps 754 mmHg 47%
    18:00 +27°C° 0 mm 2 mps 754 mmHg 54%
    19:00 +26°C° 0 mm 2 mps 754 mmHg 60%
    20:00 +24°C° 0 mm 1 mps 754 mmHg 66%
    21:00 +23°C° 0 mm 1 mps 754 mmHg 68%
    22:00 +23°C° 0 mm 1 mps 754 mmHg 70%
    23:00 +22°C° 0 mm 1 mps 754 mmHg 73%
    Show more